This demonstration page uses our WeatherBlox Daily Observations layout. Learn more.

Left ArrowRight Arrow

Hourly Observations for October 20, 2021

Temp ( °F °C ) Dew Point ( °F °C ) Humidity (%) Winds ( mph kmh ) Pressure ( in mb ) Visibility ( mi km ) Precip ( " mm )
12:53 am 00:53 Clear 44 6.7 43 6.1 96 96 N N/A 30.18 1022 10 16 N/A
1:53 am 01:53 Clear 43 6.1 42 5.6 97 97 N N/A 30.18 1022 10 16 N/A
2:24 am 02:24 Partly Cloudy 42 5.6 41 5 96 96 N N/A 30.20 1023 10 16 N/A
2:36 am 02:36 Mostly Cloudy with Mist and Fog 42 5.6 41 5 96 96 N N/A 30.21 1023 2 2 N/A
2:44 am 02:44 Mostly Cloudy with Fog 42 5.6 41 5 96 96 N N/A 30.21 1023 1 1 N/A
2:53 am 02:53 Mostly Cloudy with Mist and Fog 42 5.6 42 5.6 100 100 N N/A 30.19 1022 1 2 N/A
2:56 am 02:56 Mostly Cloudy with Mist and Fog 42 5.6 41 5 96 96 N N/A 30.21 1023 4 6 N/A
3:11 am 03:11 Partly Cloudy with Mist and Fog 42 5.6 41 5 96 96 N N/A 30.21 1023 3 5 N/A
3:24 am 03:24 Mostly Cloudy with Mist and Fog 41 5 40 4.4 96 96 N N/A 30.21 1023 2 3 N/A
3:26 am 03:26 Mostly Cloudy with Fog 40 4.4 39 3.9 97 97 N N/A 30.21 1023 1 1 N/A
3:34 am 03:34 Mostly Cloudy with Fog 41 5 40 4.4 96 96 N N/A 30.22 1023 0 0 N/A
3:48 am 03:48 Mostly Cloudy with Fog 41 5 41 5 100 100 N N/A 30.21 1023 1 1 N/A
3:53 am 03:53 Mostly Cloudy with Fog 41 5 41 5 100 100 N N/A 30.19 1022 1 1 N/A
4:33 am 04:33 Mostly Clear with Mist and Fog 40 4.4 40 4.4 100 100 N N/A 30.21 1023 1 2 N/A
4:40 am 04:40 Mostly Cloudy with Mist and Fog 40 4.4 40 4.4 100 100 N N/A 30.21 1023 1 1 N/A
4:53 am 04:53 Mostly Cloudy with Mist and Fog 40 4.4 40 4.4 100 100 N N/A 30.19 1023 1 1 N/A
4:57 am 04:57 Mostly Cloudy with Mist and Fog 40 4.4 39 3.9 97 97 N N/A 30.22 1023 2 3 N/A
4:59 am 04:59 Mostly Cloudy with Mist and Fog 40 4.4 39 3.9 97 97 N N/A 30.22 1023 4 6 N/A
5:05 am 05:05 Cloudy with Mist and Fog 40 4.4 39 3.9 97 97 N N/A 30.22 1023 2 3 N/A
5:08 am 05:08 Mostly Cloudy with Mist and Fog 40 4.4 39 3.9 97 97 N N/A 30.22 1023 1 1 N/A
5:17 am 05:17 Mostly Cloudy with Fog 40 4.4 40 4.4 100 100 N N/A 30.22 1023 0 0 N/A
5:48 am 05:48 Mostly Cloudy with Fog 39 4 39 4 100 100 N N/A 30.22 1023 1 1 N/A
5:53 am 05:53 Mostly Cloudy with Fog 40 4.4 39 3.9 97 97 N N/A 30.20 1023 1 1 N/A
6:10 am 06:10 Partly Cloudy with Mist and Fog 40 4.4 39 3.9 97 97 N N/A 30.22 1023 2 2 N/A
6:12 am 06:12 Partly Cloudy with Mist and Fog 40 4.4 39 3.9 97 97 N N/A 30.22 1023 4 6 N/A
6:53 am 06:53 Clear 39 3.9 39 3.9 100 100 N N/A 30.22 1023 8 13 N/A
7:22 am 07:22 Partly Cloudy 39 3.9 38 3.3 96 96 N N/A 30.24 1024 7 11 N/A
7:32 am 07:32 Mostly Cloudy 39 3.9 38 3.3 96 96 N N/A 30.24 1024 7 11 N/A
7:53 am 07:53 Partly Cloudy 39 3.9 39 3.9 100 100 N N/A 30.22 1024 8 13 N/A
8:53 am 08:53 Sunny 43 6.1 42 5.6 97 97 N N/A 30.24 1024 8 13 N/A
9:53 am 09:53 Sunny 53 11.7 50 10 89 89 N N/A 30.24 1024 10 16 N/A
10:53 am 10:53 Sunny 61 16.1 52 11.1 72 72 N N/A 30.23 1024 10 16 N/A
11:53 am 11:53 Sunny 67 19.4 52 11.1 59 59 VRB 3 6 30.21 1023 10 16 N/A
12:53 pm 12:53 Sunny 70 21.1 52 11.1 53 53 N N/A 30.20 1023 10 16 N/A
1:53 pm 13:53 Sunny 71 21.7 50 10 47 47 VRB 5 7 30.16 1021 10 16 N/A
2:53 pm 14:53 Sunny 73 22.8 50 10 44 44 VRB 7 11 30.13 1020 10 16 N/A
3:53 pm 15:53 Sunny 73 22.8 49 9.4 43 43 VRB 6 9 30.11 1020 10 16 N/A
4:53 pm 16:53 Sunny 73 22.8 50 10 44 44 undefined N/A 30.11 1020 10 16 N/A
5:53 pm 17:53 Sunny 70 21.1 50 10 49 49 VRB 7 11 30.09 1019 10 16 N/A
6:53 pm 18:53 Clear 65 18.3 50 10 59 59 S 3 6 30.09 1019 10 16 N/A
7:53 pm 19:53 Clear 62 16.7 50 10 65 65 N N/A 30.09 1019 10 16 N/A
8:53 pm 20:53 Clear 60 15.6 50 10 70 70 N N/A 30.07 1018 10 16 N/A
9:53 pm 21:53 Clear 56 13.3 50 10 81 81 ESE 3 6 30.06 1018 10 16 N/A
10:53 pm 22:53 Clear 55 12.8 51 10.6 87 87 N N/A 30.06 1018 10 16 N/A
11:53 pm 23:53 Clear 54 12.2 50 10 87 87 N N/A 30.07 1018 10 16 N/A

Powered by AerisWeather